Location: Six Mile Lake
(44.9000°N, 79.7170°W)
Time: 04:00:52
(UTC-04:00)

AO-92 - Pass Details

Date: 02 July 2022
Orbit: 469 x 481 km, 97.4° (Epoch: 09 August)

Event Time Altitude Azimuth Distance (km) Brightness Sun altitude
Exits shadow 23:06:02 32° 141° (SE) 854 ? -15.3°
Maximum altitude 23:07:28 59° 75° (ENE) 563 ? -15.4°
Drops below altitude 10° 23:11:01 10° 355° (N) 1,670 ? -15.7°
Sets 23:13:06 0° 352° (N) 2,557 ? -15.9°
